Regional Weather Roundup
Issued by NWS Nashville, TN

Home | Current Version | Previous Version | Text Only | Print | Product List | Glossary On
Versions: 1 2 3 4 5 6 7 8 9 10 11 12 13 14 15 16 17 18 19 20 21 22 23 24 25 26 27 28 29 30 31 32 33 34 35 36 37 38 39 40 41 42 43 44 45 46 47 48 49 50
000
ASUS44 KOHX 280510
RWROHX
MIDDLE TENNESSEE HOURLY WEATHER ROUNDUP
NATIONAL WEATHER SERVICE NASHVILLE TN
1200 AM CDT THU JUL 28 2016

NOTE: "FAIR" INDICATES FEW OR NO CLOUDS BELOW 12,000 FEET WITH
NO SIGNIFICANT WEATHER AND/OR OBSTRUCTIONS TO VISIBILITY.

* THESE REPORTS ARE NOT UNDER NWS QUALITY CONTROL AND MAY NOT
  REPORT WEATHER SUCH AS PRECIPITATION AND FOG.


TNZ005>011-023>034-057-059-062>066-078-080-280600
...NORTHERN MIDDLE TENNESSEE...

CITY           SKY/WX    TMP DP  RH WIND       PRES   REMARKS
CLARKSVILLE    TSTM      72  70  93 NE3       29.98F FOG
CROSSVILLE     CLOUDY    74  69  85 VRB3      30.07R
NASHVILLE      MOCLDY    83  70  64 S7        29.96R
SMYRNA         CLOUDY    83  71  66 S6        29.97R
SPARTA         PTCLDY    79  73  83 CALM      29.99S
$$
TNZ056-058-060-061-075>077-079-093>097-280600
...SOUTHERN MIDDLE TENNESSEE...

CITY           SKY/WX    TMP DP  RH WIND       PRES   REMARKS
COLUMBIA       CLEAR     81  81 100 SW9       29.97R HX  91
FAYETTEVILLE   CLOUDY    77  73  88 S8        30.01R
MCMINNVILLE    CLEAR     79  72  78 S3        30.01S
SHELBYVILLE    PTCLDY    79  73  83 S6        30.00R
TULLAHOMA      CLEAR     75  70  83 S9        30.02S
WINCHESTER     MOCLDY    79  70  73 S5        30.02R
$$


...KEY TO REMARKS...
VSB - VISIBILITY IN MILES
WCI - WIND CHILL INDEX
HX  - HEAT INDEX




USA.gov is the U.S. government's official web portal to all federal, state and local government web resources and services.